| time (UTC) | temp C | wind direction | speed KPH | gust KPH | rain 1hr cm | rain 24hr cm | rain mn cm | humidity % | barometer mb |
| 20260509102228 | 10 | 220 | 4.8 | 4.8 | 0.00 | 0.00 | 0.00 | 97 | 1006.3 |
| 20260509101725 | 10 | 197 | 4.8 | 6.4 | 0.00 | 0.00 | 0.00 | 97 | 1006.6 |
| 20260509101221 | 10 | 226 | 1.6 | 9.7 | 0.00 | 0.00 | 0.00 | 97 | 1006.2 |
| 20260509100719 | 10 | 230 | 3.2 | 6.4 | 0.00 | 0.00 | 0.00 | 97 | 1006.4 |
| 20260509100216 | 10 | 234 | 4.8 | 6.4 | 0.00 | 0.00 | 0.00 | 97 | 1006.7 |
| 20260509095712 | 10 | 224 | 3.2 | 6.4 | 0.00 | 0.00 | 0.00 | 97 | 1006.6 |
| 20260509095210 | 10 | 225 | 1.6 | 6.4 | 0.00 | 0.00 | 0.00 | 97 | 1006.8 |
| 20260509094706 | 10 | 227 | 6.4 | 6.4 | 0.00 | 0.00 | 0.00 | 97 | 1006.7 |
| 20260509094203 | 10 | 235 | 3.2 | 3.2 | 0.00 | 0.00 | 0.00 | 97 | 1006.8 |
| 20260509093702 | 10 | 213 | 1.6 | 9.7 | 0.00 | 0.00 | 0.00 | 97 | 1006.7 |
| 20260509093158 | 10 | 209 | 3.2 | 4.8 | 0.00 | 0.00 | 0.00 | 97 | 1006.4 |
| 20260509092656 | 10 | 209 | 3.2 | 6.4 | 0.00 | 0.00 | 0.00 | 97 | 1006.7 |
| 20260509092155 | 9 | 224 | 3.2 | 6.4 | 0.00 | 0.00 | 0.00 | 97 | 1007.0 |
| 20260509091652 | 9 | 210 | 4.8 | 4.8 | 0.00 | 0.00 | 0.00 | 97 | 1006.9 |
| 20260509091148 | 9 | 221 | 3.2 | 9.7 | 0.00 | 0.00 | 0.00 | 97 | 1006.7 |
| 20260509090646 | 9 | 190 | 3.2 | 4.8 | 0.00 | 0.00 | 0.00 | 97 | 1006.4 |
| 20260509090143 | 9 | 231 | 6.4 | 9.7 | 0.00 | 0.00 | 0.00 | 97 | 1006.7 |
| 20260509085641 | 9 | 210 | 3.2 | 3.2 | 0.00 | 0.00 | 0.00 | 97 | 1006.4 |
| 20260509085136 | 9 | 197 | 3.2 | 4.8 | 0.00 | 0.00 | 0.00 | 97 | 1006.7 |
| 20260509084634 | 9 | 210 | 3.2 | 3.2 | 0.00 | 0.00 | 0.00 | 97 | 1006.7 |
| 20260509084131 | 9 | 213 | 1.6 | 3.2 | 0.00 | 0.00 | 0.00 | 97 | 1006.8 |
| 20260509083628 | 9 | 186 | 1.6 | 3.2 | 0.00 | 0.00 | 0.00 | 97 | 1007.0 |
| 20260509083124 | 9 | 192 | 1.6 | 4.8 | 0.00 | 0.00 | 0.00 | 97 | 1006.9 |
| 20260509082622 | 9 | 183 | 3.2 | 3.2 | 0.00 | 0.00 | 0.00 | 97 | 1006.7 |
| 20260509082119 | 9 | 215 | 1.6 | 1.6 | 0.00 | 0.00 | 0.00 | 97 | 1006.8 |
| 20260509081616 | 9 | 197 | 0.0 | 0.0 | 0.00 | 0.00 | 0.00 | 97 | 1006.9 |
| 20260509081113 | 9 | 194 | 0.0 | 1.6 | 0.00 | 0.00 | 0.00 | 96 | 1006.7 |
| 20260509080611 | 9 | 191 | 1.6 | 1.6 | 0.00 | 0.00 | 0.00 | 96 | 1006.9 |
| 20260509080109 | 9 | 197 | 0.0 | 0.0 | 0.00 | 0.00 | 0.00 | 96 | 1006.9 |
| 20260509075606 | 9 | 213 | 0.0 | 0.0 | 0.00 | 0.00 | 0.00 | 96 | 1006.9 |
| 20260509075104 | 10 | 205 | 0.0 | 0.0 | 0.00 | 0.00 | 0.00 | 96 | 1006.9 |
| 20260509074600 | 10 | 212 | 0.0 | 1.6 | 0.00 | 0.00 | 0.00 | 96 | 1006.8 |
| 20260509074057 | 10 | 190 | 0.0 | 1.6 | 0.00 | 0.00 | 0.00 | 96 | 1006.8 |
| 20260509073554 | 10 | 186 | 1.6 | 3.2 | 0.00 | 0.00 | 0.00 | 96 | 1006.7 |
| 20260509073050 | 10 | 192 | 1.6 | 3.2 | 0.00 | 0.00 | 0.00 | 96 | 1006.6 |
| 20260509072547 | 10 | 153 | 1.6 | 1.6 | 0.00 | 0.00 | 0.00 | 96 | 1007.0 |
| 20260509072044 | 10 | 187 | 0.0 | 0.0 | 0.00 | 0.00 | 0.00 | 95 | 1007.2 |
| 20260509071540 | 10 | 195 | 0.0 | 1.6 | 0.00 | 0.00 | 0.00 | 95 | 1007.1 |
| 20260509071038 | 10 | 189 | 0.0 | 3.2 | 0.00 | 0.00 | 0.00 | 95 | 1007.0 |
| 20260509070535 | 10 | 189 | 0.0 | 0.0 | 0.00 | 0.00 | 0.00 | 95 | 1007.1 |
| 20260509070031 | 10 | 199 | 0.0 | 0.0 | 0.00 | 0.00 | 0.00 | 95 | 1007.0 |
| 20260509065526 | 10 | 200 | 0.0 | 0.0 | 0.00 | 0.00 | 0.00 | 95 | 1007.3 |
| 20260509065023 | 10 | 205 | 0.0 | 3.2 | 0.00 | 0.00 | 0.00 | 95 | 1007.3 |
| 20260509064521 | 10 | 198 | 0.0 | 0.0 | 0.00 | 0.00 | 0.00 | 94 | 1007.3 |
| 20260509064019 | 10 | 208 | 0.0 | 0.0 | 0.00 | 0.00 | 0.00 | 94 | 1007.6 |
| 20260509063513 | 10 | 205 | 0.0 | 0.0 | 0.00 | 0.00 | 0.00 | 94 | 1007.5 |
| 20260509063011 | 10 | 200 | 0.0 | 3.2 | 0.00 | 0.00 | 0.00 | 94 | 1007.5 |
| 20260509062508 | 10 | 204 | 0.0 | 1.6 | 0.00 | 0.00 | 0.00 | 94 | 1007.4 |
| 20260509062006 | 10 | 198 | 0.0 | 1.6 | 0.00 | 0.00 | 0.00 | 94 | 1007.4 |
| 20260509061503 | 10 | 203 | 1.6 | 3.2 | 0.00 | 0.00 | 0.00 | 93 | 1007.5 |
| 20260509061000 | 10 | 206 | 1.6 | 3.2 | 0.00 | 0.00 | 0.00 | 93 | 1007.5 |
| 20260509060457 | 10 | 209 | 1.6 | 3.2 | 0.00 | 0.00 | 0.00 | 93 | 1007.5 |
| 20260509055953 | 10 | 203 | 0.0 | 1.6 | 0.00 | 0.00 | 0.00 | 93 | 1007.9 |
| 20260509055448 | 11 | 184 | 1.6 | 3.2 | 0.00 | 0.00 | 0.00 | 92 | 1007.8 |
| 20260509054945 | 11 | 207 | 1.6 | 3.2 | 0.00 | 0.00 | 0.00 | 92 | 1007.6 |
| 20260509054442 | 11 | 196 | 0.0 | 3.2 | 0.00 | 0.00 | 0.00 | 92 | 1007.8 |
| 20260509053940 | 11 | 153 | 1.6 | 3.2 | 0.00 | 0.00 | 0.00 | 92 | 1007.9 |
| 20260509053438 | 11 | 203 | 1.6 | 3.2 | 0.00 | 0.00 | 0.00 | 92 | 1007.7 |
| 20260509052935 | 11 | 211 | 1.6 | 1.6 | 0.00 | 0.00 | 0.00 | 91 | 1007.4 |
| 20260509052432 | 11 | 191 | 1.6 | 1.6 | 0.00 | 0.00 | 0.00 | 91 | 1007.6 |
| 20260509051930 | 11 | 194 | 1.6 | 3.2 | 0.00 | 0.00 | 0.00 | 90 | 1007.7 |
| 20260509051428 | 11 | 212 | 3.2 | 4.8 | 0.00 | 0.00 | 0.00 | 90 | 1007.9 |
| 20260509050924 | 11 | 208 | 3.2 | 4.8 | 0.00 | 0.00 | 0.00 | 90 | 1007.9 |
| 20260509050421 | 11 | 199 | 1.6 | 3.2 | 0.00 | 0.00 | 0.00 | 90 | 1007.8 |
| 20260509045918 | 11 | 217 | 1.6 | 3.2 | 0.00 | 0.00 | 0.00 | 89 | 1008.2 |
| 20260509045415 | 11 | 215 | 1.6 | 3.2 | 0.00 | 0.00 | 0.00 | 89 | 1008.0 |
| 20260509044912 | 11 | 226 | 0.0 | 3.2 | 0.00 | 0.00 | 0.00 | 89 | 1008.1 |
| 20260509044410 | 11 | 215 | 1.6 | 3.2 | 0.00 | 0.00 | 0.00 | 88 | 1008.0 |
| 20260509043906 | 11 | 228 | 3.2 | 4.8 | 0.00 | 0.00 | 0.00 | 88 | 1007.9 |
| 20260509043402 | 11 | 147 | 1.6 | 3.2 | 0.00 | 0.00 | 0.00 | 88 | 1008.1 |
| 20260509042858 | 12 | 223 | 0.0 | 0.0 | 0.00 | 0.00 | 0.00 | 87 | 1008.3 |
| 20260509042355 | 12 | 233 | 1.6 | 1.6 | 0.00 | 0.00 | 0.00 | 86 | 1008.2 |
| 20260509041851 | 12 | 186 | 4.8 | 4.8 | 0.00 | 0.00 | 0.00 | 86 | 1008.1 |
| 20260509041348 | 12 | 211 | 1.6 | 3.2 | 0.00 | 0.00 | 0.00 | 86 | 1008.1 |
| 20260509040847 | 12 | 209 | 3.2 | 3.2 | 0.00 | 0.00 | 0.00 | 85 | 1008.1 |
| 20260509040344 | 12 | 214 | 1.6 | 3.2 | 0.00 | 0.00 | 0.00 | 85 | 1008.1 |
| 20260509035841 | 12 | 222 | 1.6 | 4.8 | 0.00 | 0.00 | 0.00 | 85 | 1008.4 |
| 20260509035338 | 12 | 147 | 0.0 | 3.2 | 0.00 | 0.00 | 0.00 | 84 | 1008.3 |
| 20260509034834 | 12 | 242 | 3.2 | 4.8 | 0.00 | 0.00 | 0.00 | 84 | 1008.3 |
| 20260509034332 | 12 | 218 | 1.6 | 1.6 | 0.00 | 0.00 | 0.00 | 83 | 1008.4 |
| 20260509033828 | 12 | 184 | 3.2 | 3.2 | 0.00 | 0.00 | 0.00 | 83 | 1008.5 |
| 20260509033326 | 12 | 205 | 3.2 | 3.2 | 0.00 | 0.00 | 0.00 | 82 | 1008.6 |
| 20260509032822 | 12 | 250 | 4.8 | 6.4 | 0.00 | 0.00 | 0.00 | 82 | 1008.6 |
| 20260509032320 | 12 | 215 | 1.6 | 4.8 | 0.00 | 0.00 | 0.00 | 82 | 1008.6 |
| 20260509031818 | 12 | 208 | 1.6 | 3.2 | 0.00 | 0.00 | 0.00 | 81 | 1008.4 |
| 20260509031315 | 12 | 194 | 1.6 | 3.2 | 0.00 | 0.00 | 0.00 | 81 | 1008.5 |
| 20260509030812 | 12 | 204 | 1.6 | 4.8 | 0.00 | 0.00 | 0.00 | 80 | 1008.6 |
| 20260509030310 | 13 | 227 | 3.2 | 3.2 | 0.00 | 0.00 | 0.00 | 80 | 1008.5 |
| 20260509025806 | 13 | 232 | 4.8 | 4.8 | 0.00 | 0.00 | 0.00 | 80 | 1008.8 |
| 20260509025306 | 13 | 153 | 1.6 | 3.2 | 0.00 | 0.00 | 0.00 | 79 | 1008.6 |
| 20260509024757 | 13 | 209 | 1.6 | 3.2 | 0.00 | 0.00 | 0.00 | 79 | 1008.8 |
| 20260509024254 | 13 | 226 | 1.6 | 3.2 | 0.00 | 0.00 | 0.00 | 79 | 1008.6 |
| 20260509023751 | 13 | 220 | 1.6 | 3.2 | 0.00 | 0.00 | 0.00 | 78 | 1008.4 |
| 20260509023248 | 13 | 237 | 1.6 | 6.4 | 0.00 | 0.00 | 0.00 | 79 | 1008.5 |
| 20260509022744 | 13 | 228 | 3.2 | 3.2 | 0.00 | 0.00 | 0.00 | 79 | 1008.7 |
| 20260509022242 | 13 | 228 | 1.6 | 3.2 | 0.00 | 0.00 | 0.00 | 80 | 1008.6 |
| 20260509021739 | 13 | 201 | 1.6 | 1.6 | 0.00 | 0.00 | 0.00 | 79 | 1008.7 |
| 20260509021236 | 13 | 210 | 1.6 | 4.8 | 0.00 | 0.00 | 0.00 | 79 | 1008.6 |
| 20260509020734 | 13 | 199 | 1.6 | 4.8 | 0.00 | 0.00 | 0.00 | 78 | 1008.4 |
| 20260509020231 | 13 | 215 | 1.6 | 3.2 | 0.00 | 0.00 | 0.00 | 78 | 1008.6 |
| 20260509015729 | 13 | 214 | 3.2 | 4.8 | 0.00 | 0.00 | 0.00 | 78 | 1008.3 |
| 20260509015227 | 13 | 201 | 3.2 | 4.8 | 0.00 | 0.00 | 0.00 | 77 | 1008.3 |
| 20260509014723 | 13 | 225 | 1.6 | 3.2 | 0.00 | 0.00 | 0.00 | 77 | 1008.5 |
| 20260509014220 | 13 | 222 | 3.2 | 9.7 | 0.00 | 0.00 | 0.00 | 77 | 1008.3 |
| 20260509013717 | 14 | 197 | 4.8 | 4.8 | 0.00 | 0.00 | 0.00 | 77 | 1008.3 |
| 20260509013212 | 14 | 222 | 1.6 | 4.8 | 0.00 | 0.00 | 0.00 | 76 | 1008.5 |
| 20260509012709 | 14 | 235 | 3.2 | 4.8 | 0.00 | 0.00 | 0.00 | 76 | 1008.5 |
| 20260509012206 | 14 | 198 | 3.2 | 3.2 | 0.00 | 0.00 | 0.00 | 75 | 1008.4 |
| 20260509011704 | 14 | 189 | 6.4 | 9.7 | 0.00 | 0.00 | 0.00 | 75 | 1008.6 |
| 20260509011201 | 15 | 236 | 4.8 | 6.4 | 0.00 | 0.00 | 0.00 | 74 | 1008.2 |
| 20260509010659 | 15 | 233 | 6.4 | 9.7 | 0.00 | 0.00 | 0.00 | 74 | 1008.5 |
| 20260509010154 | 15 | 240 | 3.2 | 9.7 | 0.00 | 0.00 | 0.00 | 73 | 1008.3 |
| 20260509005652 | 15 | 229 | 6.4 | 11.3 | 0.00 | 0.00 | 0.00 | 73 | 1008.2 |
| 20260509005149 | 15 | 222 | 4.8 | 4.8 | 0.00 | 0.00 | 0.00 | 71 | 1008.2 |
| 20260509004644 | 15 | 223 | 3.2 | 4.8 | 0.00 | 0.00 | 0.00 | 69 | 1008.3 |
| 20260509004142 | 15 | 225 | 1.6 | 3.2 | 0.00 | 0.00 | 0.00 | 66 | 1008.1 |
| 20260509003640 | 16 | 214 | 0.0 | 0.0 | 0.00 | 0.00 | 0.00 | 66 | 1008.1 |
| 20260509003137 | 16 | 208 | 0.0 | 3.2 | 0.00 | 0.00 | 0.00 | 65 | 1008.0 |
| 20260509002634 | 16 | 213 | 1.6 | 3.2 | 0.00 | 0.00 | 0.00 | 65 | 1007.9 |
| 20260509002131 | 16 | 220 | 0.0 | 1.6 | 0.00 | 0.00 | 0.00 | 64 | 1007.9 |
| 20260509001629 | 16 | 231 | 4.8 | 4.8 | 0.00 | 0.00 | 0.00 | 63 | 1007.9 |
| 20260509001125 | 16 | 227 | 1.6 | 9.7 | 0.00 | 0.00 | 0.00 | 63 | 1008.2 |
| 20260509000623 | 16 | 227 | 1.6 | 4.8 | 0.00 | 0.00 | 0.00 | 63 | 1007.8 |
| 20260509000119 | 16 | 211 | 1.6 | 3.2 | 0.00 | 0.00 | 0.00 | 63 | 1008.1 |
| 20260508235617 | 16 | 242 | 3.2 | 3.2 | 0.00 | 0.00 | 0.00 | 63 | 1008.1 |
| 20260508235113 | 16 | 238 | 6.4 | 9.7 | 0.00 | 0.00 | 0.00 | 64 | 1008.1 |
| 20260508234611 | 16 | 216 | 4.8 | 6.4 | 0.00 | 0.00 | 0.00 | 63 | 1008.0 |
| 20260508234107 | 16 | 211 | 8.0 | 11.3 | 0.00 | 0.00 | 0.00 | 64 | 1008.0 |
| 20260508233607 | 16 | 257 | 6.4 | 6.4 | 0.00 | 0.00 | 0.00 | 64 | 1008.1 |
| 20260508233104 | 16 | 217 | 3.2 | 14.5 | 0.00 | 0.00 | 0.00 | 64 | 1008.1 |
| 20260508232601 | 17 | 209 | 4.8 | 6.4 | 0.00 | 0.00 | 0.00 | 64 | 1008.1 |
| 20260508232057 | 17 | 220 | 1.6 | 6.4 | 0.00 | 0.00 | 0.00 | 65 | 1007.9 |
| 20260508231555 | 17 | 250 | 3.2 | 6.4 | 0.00 | 0.00 | 0.00 | 64 | 1007.9 |
| 20260508231052 | 17 | 248 | 4.8 | 4.8 | 0.00 | 0.00 | 0.00 | 64 | 1008.2 |
| 20260508230548 | 17 | 232 | 3.2 | 4.8 | 0.00 | 0.00 | 0.00 | 65 | 1008.4 |
| 20260508230045 | 17 | 254 | 4.8 | 6.4 | 0.00 | 0.00 | 0.00 | 64 | 1008.0 |
| 20260508225542 | 17 | 304 | 3.2 | 4.8 | 0.00 | 0.00 | 0.00 | 65 | 1008.1 |
| 20260508225039 | 16 | 227 | 6.4 | 9.7 | 0.00 | 0.00 | 0.00 | 65 | 1008.3 |
| 20260508224537 | 17 | 178 | 4.8 | 6.4 | 0.00 | 0.00 | 0.00 | 64 | 1008.3 |
| 20260508224034 | 16 | 266 | 6.4 | 6.4 | 0.00 | 0.00 | 0.00 | 66 | 1008.4 |
| 20260508223532 | 16 | 283 | 3.2 | 6.4 | 0.00 | 0.00 | 0.00 | 66 | 1008.2 |
| 20260508223029 | 17 | 188 | 4.8 | 9.7 | 0.00 | 0.00 | 0.00 | 65 | 1008.2 |
| 20260508222526 | 17 | 215 | 4.8 | 11.3 | 0.00 | 0.00 | 0.00 | 64 | 1008.1 |
| 20260508222023 | 17 | 233 | 4.8 | 6.4 | 0.00 | 0.00 | 0.00 | 64 | 1008.1 |
| 20260508221519 | 17 | 204 | 9.7 | 11.3 | 0.00 | 0.00 | 0.00 | 64 | 1008.2 |
| 20260508221015 | 17 | 277 | 3.2 | 3.2 | 0.00 | 0.00 | 0.00 | 64 | 1008.2 |
| 20260508220512 | 18 | 229 | 3.2 | 4.8 | 0.00 | 0.00 | 0.00 | 63 | 1008.1 |
| 20260508220008 | 17 | 217 | 1.6 | 1.6 | 0.00 | 0.00 | 0.00 | 64 | 1008.6 |
| 20260508215505 | 16 | 124 | 0.0 | 0.0 | 0.00 | 0.00 | 0.00 | 64 | 1008.3 |
| 20260508215001 | 16 | 208 | 1.6 | 3.2 | 0.00 | 0.00 | 0.00 | 65 | 1008.4 |
| 20260508214459 | 17 | 239 | 1.6 | 3.2 | 0.00 | 0.00 | 0.00 | 63 | 1008.5 |
| 20260508213955 | 17 | 260 | 4.8 | 4.8 | 0.00 | 0.00 | 0.00 | 63 | 1008.4 |
| 20260508213453 | 17 | 186 | 3.2 | 6.4 | 0.00 | 0.00 | 0.00 | 62 | 1008.5 |
| 20260508212948 | 17 | 203 | 3.2 | 9.7 | 0.00 | 0.00 | 0.00 | 61 | 1008.3 |
| 20260508212445 | 17 | 181 | 1.6 | 4.8 | 0.00 | 0.00 | 0.00 | 61 | 1008.4 |
| 20260508211941 | 17 | 145 | 1.6 | 3.2 | 0.00 | 0.00 | 0.00 | 60 | 1008.4 |
| 20260508211437 | 17 | 261 | 0.0 | 1.6 | 0.00 | 0.00 | 0.00 | 62 | 1008.4 |
| 20260508210934 | 17 | 179 | 3.2 | 4.8 | 0.00 | 0.00 | 0.00 | 61 | 1008.5 |
| 20260508210431 | 17 | 178 | 0.0 | 0.0 | 0.00 | 0.00 | 0.00 | 62 | 1008.7 |
| 20260508205927 | 17 | 151 | 0.0 | 0.0 | 0.00 | 0.00 | 0.00 | 63 | 1008.4 |
| 20260508205424 | 17 | 190 | 3.2 | 3.2 | 0.00 | 0.00 | 0.00 | 62 | 1008.5 |
| 20260508204920 | 17 | 131 | 1.6 | 3.2 | 0.00 | 0.00 | 0.00 | 63 | 1008.6 |
| 20260508204418 | 16 | 167 | 3.2 | 3.2 | 0.00 | 0.00 | 0.00 | 64 | 1008.7 |
| 20260508203913 | 16 | 352 | 0.0 | 0.0 | 0.00 | 0.00 | 0.00 | 65 | 1008.8 |
| 20260508203410 | 16 | 24 | 1.6 | 1.6 | 0.00 | 0.00 | 0.00 | 63 | 1008.8 |
| 20260508202906 | 17 | 209 | 4.8 | 4.8 | 0.00 | 0.00 | 0.00 | 63 | 1008.8 |
| 20260508202403 | 17 | 68 | 0.0 | 1.6 | 0.00 | 0.00 | 0.00 | 61 | 1008.8 |
| 20260508201900 | 17 | 174 | 3.2 | 3.2 | 0.00 | 0.00 | 0.00 | 64 | 1009.0 |
| 20260508201357 | 16 | 208 | 1.6 | 3.2 | 0.00 | 0.00 | 0.00 | 64 | 1009.1 |
| 20260508200853 | 17 | 226 | 3.2 | 3.2 | 0.00 | 0.00 | 0.00 | 66 | 1009.2 |
| 20260508200350 | 17 | 187 | 0.0 | 3.2 | 0.00 | 0.00 | 0.00 | 61 | 1009.4 |
| 20260508195846 | 17 | 188 | 0.0 | 3.2 | 0.00 | 0.00 | 0.00 | 59 | 1009.3 |
| 20260508195343 | 17 | 281 | 1.6 | 3.2 | 0.00 | 0.00 | 0.00 | 60 | 1009.3 |
| 20260508194839 | 17 | 133 | 1.6 | 4.8 | 0.00 | 0.00 | 0.00 | 61 | 1009.4 |
| 20260508194336 | 16 | 21 | 3.2 | 3.2 | 0.00 | 0.00 | 0.00 | 61 | 1009.3 |
| 20260508193833 | 16 | 149 | 4.8 | 4.8 | 0.00 | 0.00 | 0.00 | 62 | 1009.5 |
| 20260508193330 | 16 | 146 | 3.2 | 3.2 | 0.00 | 0.00 | 0.00 | 63 | 1009.7 |
| 20260508192826 | 16 | 198 | 0.0 | 1.6 | 0.00 | 0.00 | 0.00 | 64 | 1009.6 |
| 20260508192323 | 16 | 192 | 1.6 | 1.6 | 0.00 | 0.00 | 0.00 | 67 | 1009.7 |
| 20260508191820 | 16 | 176 | 0.0 | 3.2 | 0.00 | 0.00 | 0.00 | 66 | 1009.7 |
| 20260508191317 | 16 | 114 | 0.0 | 0.0 | 0.00 | 0.00 | 0.00 | 65 | 1009.7 |
| 20260508190815 | 16 | 161 | 0.0 | 3.2 | 0.00 | 0.00 | 0.00 | 65 | 1010.1 |
| 20260508190311 | 16 | 167 | 1.6 | 1.6 | 0.00 | 0.00 | 0.00 | 67 | 1010.0 |
| 20260508185807 | 16 | 186 | 1.6 | 3.2 | 0.00 | 0.00 | 0.00 | 67 | 1010.1 |
| 20260508185306 | 16 | 140 | 1.6 | 1.6 | 0.00 | 0.00 | 0.00 | 66 | 1010.0 |
| 20260508184802 | 16 | 181 | 1.6 | 1.6 | 0.00 | 0.00 | 0.00 | 65 | 1010.3 |
| 20260508184259 | 16 | 176 | 1.6 | 1.6 | 0.00 | 0.00 | 0.00 | 67 | 1010.1 |
| 20260508183756 | 16 | 210 | 1.6 | 3.2 | 0.00 | 0.00 | 0.00 | 65 | 1010.1 |
| 20260508183252 | 16 | 275 | 3.2 | 3.2 | 0.00 | 0.00 | 0.00 | 65 | 1010.3 |
| 20260508182748 | 16 | 231 | 1.6 | 3.2 | 0.00 | 0.00 | 0.00 | 66 | 1010.4 |
| 20260508182245 | 16 | 189 | 1.6 | 4.8 | 0.00 | 0.00 | 0.00 | 64 | 1010.4 |
| 20260508181741 | 16 | 167 | 0.0 | 1.6 | 0.00 | 0.00 | 0.00 | 65 | 1010.4 |
| 20260508181238 | 16 | 168 | 0.0 | 0.0 | 0.00 | 0.00 | 0.00 | 65 | 1010.6 |
| 20260508180734 | 16 | 188 | 3.2 | 6.4 | 0.00 | 0.00 | 0.00 | 66 | 1010.6 |
| 20260508180232 | 16 | 174 | 3.2 | 4.8 | 0.00 | 0.00 | 0.00 | 65 | 1010.4 |
| 20260508175728 | 16 | 177 | 1.6 | 4.8 | 0.00 | 0.00 | 0.00 | 67 | 1010.7 |
| 20260508175225 | 16 | 185 | 0.0 | 4.8 | 0.00 | 0.00 | 0.00 | 68 | 1010.7 |
| 20260508174723 | 15 | 184 | 0.0 | 4.8 | 0.00 | 0.00 | 0.00 | 69 | 1011.0 |
| 20260508174220 | 15 | 135 | 1.6 | 3.2 | 0.00 | 0.00 | 0.00 | 71 | 1011.0 |
| 20260508173716 | 16 | 164 | 0.0 | 3.2 | 0.00 | 0.00 | 0.00 | 69 | 1011.2 |
| 20260508173212 | 15 | 110 | 0.0 | 1.6 | 0.00 | 0.00 | 0.00 | 70 | 1011.5 |
| 20260508172709 | 16 | 191 | 0.0 | 4.8 | 0.00 | 0.00 | 0.00 | 67 | 1011.4 |
| 20260508172206 | 16 | 232 | 1.6 | 6.4 | 0.00 | 0.00 | 0.00 | 70 | 1011.6 |
| 20260508171702 | 16 | 186 | 3.2 | 4.8 | 0.00 | 0.00 | 0.00 | 68 | 1011.7 |
| 20260508171159 | 16 | 228 | 3.2 | 4.8 | 0.00 | 0.00 | 0.00 | 67 | 1011.5 |
| 20260508170656 | 16 | 211 | 3.2 | 6.4 | 0.00 | 0.00 | 0.00 | 66 | 1011.4 |
| 20260508170154 | 16 | 119 | 3.2 | 6.4 | 0.00 | 0.00 | 0.00 | 64 | 1011.7 |
| 20260508165650 | 16 | 212 | 6.4 | 6.4 | 0.00 | 0.00 | 0.00 | 67 | 1011.7 |
| 20260508165147 | 16 | 170 | 1.6 | 3.2 | 0.00 | 0.00 | 0.00 | 67 | 1011.9 |
| 20260508164644 | 15 | 203 | 1.6 | 4.8 | 0.00 | 0.00 | 0.00 | 71 | 1012.0 |
| 20260508164140 | 15 | 209 | 1.6 | 3.2 | 0.00 | 0.00 | 0.00 | 68 | 1011.9 |
| 20260508163638 | 16 | 193 | 1.6 | 3.2 | 0.00 | 0.00 | 0.00 | 68 | 1012.1 |
| 20260508163136 | 15 | 214 | 1.6 | 3.2 | 0.00 | 0.00 | 0.00 | 70 | 1012.3 |
| 20260508162631 | 15 | 187 | 3.2 | 6.4 | 0.00 | 0.00 | 0.00 | 71 | 1012.2 |
| 20260508162129 | 15 | 254 | 3.2 | 4.8 | 0.00 | 0.00 | 0.00 | 74 | 1012.2 |
| 20260508161625 | 15 | 171 | 3.2 | 4.8 | 0.00 | 0.00 | 0.00 | 71 | 1012.5 |
| 20260508161123 | 15 | 237 | 6.4 | 6.4 | 0.00 | 0.00 | 0.00 | 71 | 1012.5 |
| 20260508160621 | 15 | 206 | 0.0 | 3.2 | 0.00 | 0.00 | 0.00 | 72 | 1012.2 |
| 20260508160119 | 15 | 185 | 4.8 | 6.4 | 0.00 | 0.00 | 0.00 | 70 | 1012.2 |
| 20260508155615 | 15 | 179 | 1.6 | 4.8 | 0.00 | 0.00 | 0.00 | 73 | 1012.5 |
| 20260508155112 | 15 | 231 | 1.6 | 6.4 | 0.00 | 0.00 | 0.00 | 73 | 1012.4 |
| 20260508154609 | 15 | 187 | 4.8 | 4.8 | 0.00 | 0.00 | 0.00 | 73 | 1012.7 |
| 20260508154106 | 14 | 242 | 1.6 | 4.8 | 0.00 | 0.00 | 0.00 | 74 | 1012.5 |
| 20260508153603 | 15 | 234 | 1.6 | 9.7 | 0.00 | 0.00 | 0.00 | 72 | 1012.4 |
| 20260508153059 | 15 | 217 | 4.8 | 6.4 | 0.00 | 0.00 | 0.00 | 72 | 1012.5 |
| 20260508152557 | 15 | 187 | 3.2 | 4.8 | 0.00 | 0.00 | 0.00 | 72 | 1012.6 |
| 20260508152051 | 15 | 189 | 6.4 | 6.4 | 0.00 | 0.00 | 0.00 | 73 | 1012.6 |
| 20260508151548 | 14 | 167 | 4.8 | 6.4 | 0.00 | 0.00 | 0.00 | 75 | 1012.5 |
| 20260508151045 | 15 | 244 | 1.6 | 3.2 | 0.00 | 0.00 | 0.00 | 73 | 1012.6 |
| 20260508150543 | 14 | 196 | 4.8 | 9.7 | 0.00 | 0.00 | 0.00 | 77 | 1012.4 |
| 20260508150038 | 13 | 212 | 4.8 | 9.7 | 0.00 | 0.00 | 0.00 | 77 | 1012.5 |
| 20260508145535 | 13 | 240 | 3.2 | 6.4 | 0.00 | 0.00 | 0.00 | 77 | 1012.5 |
| 20260508145031 | 14 | 231 | 4.8 | 11.3 | 0.00 | 0.00 | 0.00 | 76 | 1012.5 |
| 20260508144529 | 13 | 244 | 4.8 | 6.4 | 0.00 | 0.00 | 0.00 | 79 | 1012.4 |
| 20260508144026 | 13 | 196 | 4.8 | 4.8 | 0.00 | 0.00 | 0.00 | 81 | 1012.4 |
| 20260508143524 | 13 | 184 | 4.8 | 4.8 | 0.00 | 0.00 | 0.00 | 80 | 1012.4 |
| 20260508143020 | 13 | 241 | 3.2 | 4.8 | 0.00 | 0.00 | 0.00 | 80 | 1012.6 |
| 20260508142518 | 13 | 256 | 1.6 | 3.2 | 0.00 | 0.00 | 0.00 | 84 | 1012.5 |
| 20260508142014 | 12 | 210 | 3.2 | 4.8 | 0.00 | 0.00 | 0.00 | 84 | 1012.4 |
| 20260508141510 | 12 | 174 | 4.8 | 6.4 | 0.00 | 0.00 | 0.00 | 84 | 1012.6 |
| 20260508141008 | 12 | 212 | 1.6 | 4.8 | 0.00 | 0.00 | 0.00 | 85 | 1012.5 |
| 20260508140506 | 12 | 196 | 1.6 | 6.4 | 0.00 | 0.00 | 0.00 | 86 | 1012.5 |
| 20260508140001 | 12 | 168 | 3.2 | 4.8 | 0.00 | 0.00 | 0.00 | 88 | 1012.6 |
| 20260508135457 | 12 | 211 | 0.0 | 3.2 | 0.00 | 0.00 | 0.00 | 89 | 1012.6 |
| 20260508134954 | 11 | 200 | 4.8 | 6.4 | 0.00 | 0.00 | 0.00 | 91 | 1012.7 |
| 20260508134450 | 11 | 229 | 1.6 | 4.8 | 0.00 | 0.00 | 0.00 | 92 | 1012.9 |
| 20260508133947 | 11 | 186 | 3.2 | 6.4 | 0.00 | 0.00 | 0.00 | 91 | 1012.9 |
| 20260508133445 | 10 | 183 | 3.2 | 3.2 | 0.00 | 0.00 | 0.00 | 92 | 1012.9 |
| 20260508132941 | 10 | 234 | 4.8 | 6.4 | 0.00 | 0.00 | 0.00 | 92 | 1012.7 |
| 20260508132440 | 10 | 220 | 3.2 | 4.8 | 0.00 | 0.00 | 0.00 | 91 | 1012.9 |
| 20260508131936 | 10 | 195 | 4.8 | 6.4 | 0.00 | 0.00 | 0.00 | 92 | 1012.6 |
| 20260508131431 | 10 | 204 | 3.2 | 6.4 | 0.00 | 0.00 | 0.00 | 91 | 1012.6 |
| 20260508130928 | 10 | 194 | 3.2 | 4.8 | 0.00 | 0.00 | 0.00 | 91 | 1012.7 |
| 20260508130425 | 9 | 205 | 1.6 | 3.2 | 0.00 | 0.00 | 0.00 | 91 | 1012.6 |
| 20260508125921 | 9 | 223 | 1.6 | 3.2 | 0.00 | 0.00 | 0.00 | 92 | 1012.8 |
| 20260508125417 | 8 | 178 | 0.0 | 0.0 | 0.00 | 0.00 | 0.00 | 91 | 1013.0 |
| 20260508124915 | 8 | 198 | 0.0 | 0.0 | 0.00 | 0.00 | 0.00 | 91 | 1013.0 |
| 20260508124413 | 8 | 215 | 0.0 | 3.2 | 0.00 | 0.00 | 0.00 | 91 | 1013.1 |
| 20260508123910 | 8 | 229 | 0.0 | 1.6 | 0.00 | 0.00 | 0.00 | 91 | 1013.1 |
| 20260508123409 | 8 | 192 | 1.6 | 3.2 | 0.00 | 0.00 | 0.00 | 90 | 1013.2 |
| 20260508122905 | 8 | 196 | 0.0 | 0.0 | 0.00 | 0.00 | 0.00 | 90 | 1012.9 |
| 20260508122402 | 8 | 250 | 1.6 | 1.6 | 0.00 | 0.00 | 0.00 | 90 | 1013.2 |
| 20260508121859 | 8 | 209 | 1.6 | 3.2 | 0.00 | 0.00 | 0.00 | 90 | 1012.9 |
| 20260508121357 | 8 | 201 | 0.0 | 0.0 | 0.00 | 0.00 | 0.00 | 90 | 1012.8 |
| 20260508120854 | 8 | 200 | 0.0 | 0.0 | 0.00 | 0.00 | 0.00 | 90 | 1012.9 |
| 20260508120352 | 8 | 187 | 0.0 | 0.0 | 0.00 | 0.00 | 0.00 | 91 | 1012.6 |
| 20260508115849 | 8 | 195 | 0.0 | 0.0 | 0.00 | 0.00 | 0.00 | 91 | 1012.5 |
| 20260508115347 | 8 | 208 | 0.0 | 0.0 | 0.00 | 0.00 | 0.00 | 92 | 1012.7 |
| 20260508114843 | 7 | 233 | 0.0 | 0.0 | 0.00 | 0.00 | 0.00 | 92 | 1012.9 |
| 20260508114340 | 7 | 203 | 0.0 | 0.0 | 0.00 | 0.00 | 0.00 | 92 | 1012.5 |
| 20260508113837 | 7 | 188 | 0.0 | 0.0 | 0.00 | 0.00 | 0.00 | 92 | 1012.4 |
| 20260508113335 | 7 | 190 | 0.0 | 0.0 | 0.00 | 0.00 | 0.00 | 92 | 1012.4 |
| 20260508112831 | 7 | 193 | 0.0 | 0.0 | 0.00 | 0.00 | 0.00 | 92 | 1012.4 |
| 20260508112329 | 7 | 194 | 0.0 | 0.0 | 0.00 | 0.00 | 0.00 | 92 | 1012.6 |
| 20260508111825 | 7 | 197 | 0.0 | 0.0 | 0.00 | 0.00 | 0.00 | 92 | 1012.6 |
| 20260508111322 | 7 | 192 | 0.0 | 0.0 | 0.00 | 0.00 | 0.00 | 92 | 1012.3 |
| 20260508110819 | 7 | 140 | 0.0 | 0.0 | 0.00 | 0.00 | 0.00 | 92 | 1012.4 |
| 20260508110317 | 7 | 146 | 0.0 | 0.0 | 0.00 | 0.00 | 0.00 | 92 | 1012.5 |
| 20260508105817 | 7 | 133 | 0.0 | 0.0 | 0.00 | 0.00 | 0.00 | 92 | 1012.4 |
| 20260508105314 | 7 | 145 | 0.0 | 0.0 | 0.00 | 0.00 | 0.00 | 92 | 1012.4 |
| 20260508104810 | 7 | 201 | 0.0 | 0.0 | 0.00 | 0.00 | 0.00 | 92 | 1012.4 |
| 20260508104307 | 7 | 201 | 0.0 | 0.0 | 0.00 | 0.00 | 0.00 | 92 | 1012.5 |
| 20260508103805 | 7 | 206 | 0.0 | 0.0 | 0.00 | 0.00 | 0.00 | 91 | 1012.7 |
| 20260508103301 | 7 | 182 | 0.0 | 0.0 | 0.00 | 0.00 | 0.00 | 91 | 1012.8 |
| 20260508102759 | 7 | 155 | 0.0 | 0.0 | 0.00 | 0.00 | 0.00 | 90 | 1012.6 |